STOCKHOLM/ARLANDA current weather conditions

sailwx.info

Wind from 060 at 10 knots

Air temperature 30.0° C
Dewpoint 10.0° C

Last reported at 2014-Jul-24 13:20 UTC.
Time now 2014-Jul-24 15:21 UTC

Location: N 59°39' E 017°57'.
View on Google Maps.

See reports from other nearby stations

  
Tides and Currents Weather Stations Pressure Air Temp Water Temp Dewpoint Dewpoint Depression Visibility Wind Speed Wind Dir Waves Ship Positions
date/time (UTC)wind fromknots sea level pressurealtimeterstation pressurevisibilityair tempwater tempwave heightnotes
2014-Jul-24 14:20 080 10 31.0
2014-Jul-24 13:50 080 10 gusting 23 31.0
2014-Jul-24 13:20 060 10 30.0
2014-Jul-24 12:50 080 8 gusting 18 31.0
2014-Jul-24 12:20 030 10 31.0
2014-Jul-24 11:50 070 9 5.431.0
2014-Jul-24 11:20 070 8 5.431.0
2014-Jul-24 10:50 050 7 30.0
2014-Jul-24 10:20 070 7 30.0
2014-Jul-24 09:50 060 6 29.0
2014-Jul-24 09:20 020 5 29.0
2014-Jul-24 08:50 28.0
2014-Jul-24 08:20 27.0
2014-Jul-24 07:50 26.0
2014-Jul-24 07:20 25.0
2014-Jul-24 06:50 24.0
2014-Jul-24 06:20 22.0
2014-Jul-24 05:50 290 3 22.0
2014-Jul-24 05:20 21.0
2014-Jul-24 04:50 19.0
2014-Jul-24 04:20 070 2 18.0
2014-Jul-24 03:50 16.0
2014-Jul-24 03:20 170 3 15.0
2014-Jul-24 02:50 170 5 14.0
2014-Jul-24 02:20 180 4 14.0
2014-Jul-24 01:50 190 3 15.0
2014-Jul-24 01:20 190 2 15.0
2014-Jul-24 00:50 170 1 17.0
2014-Jul-24 00:20 180 4 18.0
2014-Jul-23 23:50 170 5 18.0
2014-Jul-23 23:20 170 4 18.0
2014-Jul-23 22:50 180 4 17.0
2014-Jul-23 22:20 180 4 18.0
2014-Jul-23 21:50 180 4 19.0
2014-Jul-23 21:20 160 3 20.0
2014-Jul-23 20:50 140 5 22.0
2014-Jul-23 20:20 120 5 20.0
2014-Jul-23 19:50 180 2 20.0
2014-Jul-23 19:20 260 3 21.0
2014-Jul-23 18:50 260 4 25.0
2014-Jul-23 18:20 250 5 26.0
2014-Jul-23 17:50 240 6 27.0
2014-Jul-23 17:20 250 7 28.0
2014-Jul-23 16:50 260 8 28.0
2014-Jul-23 16:20 250 8 28.0
2014-Jul-23 15:50 260 7 29.0
2014-Jul-23 15:20 220 6 29.0
2014-Jul-23 14:50 320 4 29.0
2014-Jul-23 14:20 310 5 28.0
2014-Jul-23 13:50 230 6 29.0
2014-Jul-23 13:20 250 5 29.0
2014-Jul-23 12:50 180 6 28.0
2014-Jul-23 12:20 230 4 28.0
2014-Jul-23 11:50 230 6 28.0
2014-Jul-23 11:20 250 4 28.0
2014-Jul-23 10:50 260 5 27.0
2014-Jul-23 10:20 240 5 27.0
2014-Jul-23 09:50 310 4 27.0
2014-Jul-23 09:20 26.0
2014-Jul-23 08:50 25.0
2014-Jul-23 08:20 310 5 25.0
2014-Jul-23 07:50 25.0
2014-Jul-23 07:20 24.0
2014-Jul-23 06:50 360 4 23.0
2014-Jul-23 06:20 340 4 22.0
2014-Jul-23 05:50 330 3 21.0
2014-Jul-23 05:20 340 3 18.0
2014-Jul-23 04:50 340 3 17.0
2014-Jul-23 04:20 350 2 15.0
2014-Jul-23 03:50 12.0
2014-Jul-23 03:20 12.0
2014-Jul-23 02:50 360 1 5.412.0 Patches of fog.
2014-Jul-23 02:20 360 1 5.411.0 Patches of fog.
2014-Jul-23 01:50 5.412.0 Patches of fog.
2014-Jul-23 01:20 010 1 12.0
2014-Jul-23 00:50 340 2 12.0
2014-Jul-23 00:20 020 3 12.0
2014-Jul-22 23:50 010 2 12.0
2014-Jul-22 23:20 350 2 13.0
2014-Jul-22 22:50 290 2 13.0
2014-Jul-22 22:20 13.0
2014-Jul-22 21:50 070 3 14.0
2014-Jul-22 21:20 010 3 15.0
2014-Jul-22 20:50 360 2 15.0
2014-Jul-22 20:20 070 4 17.0
2014-Jul-22 19:50 070 5 18.0
2014-Jul-22 19:20 060 5 20.0
2014-Jul-22 18:50 070 5 24.0
2014-Jul-22 18:20 080 6 25.0
2014-Jul-22 17:50 060 7 25.0
2014-Jul-22 17:20 070 9 26.0
2014-Jul-22 16:50 060 8 26.0
2014-Jul-22 16:20 080 8 27.0
2014-Jul-22 15:50 070 9 27.0
2014-Jul-22 15:20 060 8 27.0